Salinas, CA

5:01 AM PST on November 15, 2019 (GMT -0800)
Salinas Municipal

Weather History for KSNS - October, 2019

Change the Weather History Date:

Monday, October 21, 2019

  Actual Average Record
Temperature  
Mean Temperature 66 °F 61 °F  
Max Temperature 83 °F 72 °F 97 °F (1937)
Min Temperature 48 °F 49 °F 36 °F (1949)
Degree Days  
Heating Degree Days 0 5  
Month to date heating degree days 101 81  
Since 1 July heating degree days 201 276  
Cooling Degree Days 1 1  
Month to date cooling degree days 10 21  
Year to date cooling degree days 246 126  
Growing Degree Days 14 (Base 50)    
Moisture  
Dew Point 47 °F    
Average Humidity 54    
Maximum Humidity 80    
Minimum Humidity 28    
Precipitation  
Precipitation 0.00 in 0.02 in 0.48 in (1941)
Month to date precipitation 0.00 0.33  
Year to date precipitation 9.18 9.25  
Sea Level Pressure  
Sea Level Pressure 30.14 in    
Wind  
Wind Speed 4 mph (NW)    
Max Wind Speed 13 mph    
Max Gust Speed 17 mph    
Visibility 10 miles    
Events      
T = Trace of Precipitation, MM = Missing Value Source: NWS Daily Summary

Daily Weather History Graph

Daily Weather History Graph

Search for Another Location

Airport or City:

Astronomy

Oct. 21, 2019 Rise Set
Actual Time 7:19 AM PDT 6:22 PM PDT
Civil Twilight 6:52 AM PDT 6:48 PM PDT
Nautical Twilight 6:22 AM PDT 7:18 PM PDT
Astronomical Twilight 5:52 AM PDT 7:48 PM PDT
Moon No Moon Rise 2:36 PM PDT (10/21)
Length of Visible Light 11h 55m
Length of Day
11h 03m
Waning Gibbous, 47% of the Moon is Illuminated
Oct 21
Waning Gibbous
Oct 27
New
Nov 4
First Quarter
Nov 12
Full
Nov 19
Last Quarter

Hourly Weather History & Observations

Time (PDT) Temp. Dew Point Humidity Pressure Visibility Wind Dir Wind Speed Gust Speed Precip Events Conditions
12:53 AM 52.0 °F 45.0 °F 77% 30.14 in 10.0 mi Calm Calm - N/A   Clear
1:53 AM 51.1 °F 44.1 °F 77% 30.14 in 10.0 mi East 3.5 mph - N/A   Clear
2:53 AM 51.1 °F 44.1 °F 77% 30.14 in 10.0 mi Calm Calm - N/A   Clear
3:53 AM 51.1 °F 44.1 °F 77% 30.13 in 10.0 mi Calm Calm - N/A   Clear
4:53 AM 48.0 °F 42.1 °F 80% 30.13 in 10.0 mi ESE 3.5 mph - N/A   Clear
5:53 AM 50.0 °F 43.0 °F 77% 30.14 in 10.0 mi Calm Calm - N/A   Clear
6:53 AM 50.0 °F 43.0 °F 77% 30.14 in 10.0 mi Calm Calm - N/A   Clear
7:53 AM 50.0 °F 44.1 °F 80% 30.15 in 9.0 mi SE 3.5 mph - N/A   Clear
8:53 AM 55.0 °F 45.0 °F 69% 30.17 in 10.0 mi SSE 5.8 mph - N/A   Clear
9:53 AM 60.1 °F 46.9 °F 62% 30.19 in 10.0 mi South 4.6 mph - N/A   Clear
10:53 AM 68.0 °F 46.9 °F 47% 30.18 in 10.0 mi Calm Calm - N/A   Clear
11:53 AM 75.9 °F 46.9 °F 36% 30.16 in 10.0 mi WNW 4.6 mph - N/A   Clear
12:53 PM 81.0 °F 45.0 °F 28% 30.14 in 10.0 mi NW 8.1 mph - N/A   Clear
1:53 PM 81.0 °F 48.0 °F 31% 30.12 in 10.0 mi NW 10.4 mph - N/A   Clear
2:53 PM 80.1 °F 48.9 °F 34% 30.10 in 10.0 mi WNW 10.4 mph - N/A   Clear
3:53 PM 81.0 °F 50.0 °F 34% 30.10 in 10.0 mi WNW 9.2 mph - N/A   Clear
4:53 PM 80.1 °F 50.0 °F 35% 30.10 in 10.0 mi NW 9.2 mph - N/A   Clear
5:53 PM 72.0 °F 51.1 °F 48% 30.10 in 10.0 mi NNW 9.2 mph - N/A   Clear
6:53 PM 69.1 °F 50.0 °F 51% 30.12 in 10.0 mi NW 6.9 mph - N/A   Clear
7:53 PM 63.0 °F 48.9 °F 60% 30.14 in 10.0 mi South 3.5 mph - N/A   Clear
8:53 PM 61.0 °F 48.9 °F 64% 30.16 in 10.0 mi ENE 5.8 mph - N/A   Clear
9:53 PM 61.0 °F 48.9 °F 64% 30.17 in 10.0 mi Calm Calm - N/A   Clear
10:53 PM 59.0 °F 48.9 °F 69% 30.18 in 10.0 mi NE 3.5 mph - N/A   Clear
11:53 PM 59.0 °F 48.9 °F 69% 30.18 in 10.0 mi Calm Calm - N/A   Clear